Location: Strawberry
(45.6646°N, 111.9596°W)
Time: 16:53:12
(UTC+00:00)

SR - Pass Details

Date: 08 October 2022
Orbit: 577 x 874 km, 66.7° (Epoch: 05 December)

Event Time Altitude Azimuth Distance (km) Brightness Sun altitude
Rises 04:06:33 0° 235° (SW) 3,445 ? -33.0°
Reaches altitude 10° 04:09:10 10° 242° (WSW) 2,521 ? -33.4°
Maximum altitude 04:14:43 41° 312° (NW) 1,245 ? -34.3°
Enters shadow 04:16:32 33° 352° (N) 1,435 ? -34.5°
